WXM80 ListenWXM80 Stop

You find our weather info also at:

UK Metoffice

WeatherCloud

Weather Underground

Northeastern Weather Network

AWEKAS

Citizen Weather Observer Program (CWOP)

HAMweather, WeatherForYou, PWS Weather


Weather Underground History page Text

Daily Summary for July 17, 2017 Units:  English    Metric   Both
« Previous Day
Next Day »
Daily Weekly Monthly Yearly Custom
  High: Low: Average:
Temperature: 86.0 °F 68.6 °F 77.2 °F
Dew Point: 75.1 °F 65.9 °F 70.5 °F
Humidity: 96 % 61 % 81 %
Wind Speed: 5.7 mph 0.0 mph 0.7 mph
Wind Gust: 10.4 mph - -
Wind:- - SSE
Pressure: 30.04 in 29.95 in -
Precipitation: 0.00 in    
Historical Graphs
 
 
Tabular Data for July 17, 2017
Time Temperature Dew Point Pressure Wind Wind Speed Wind Gust Humidity Rainfall Rate (Hourly)
00:00 73.3 °F 67.8 °F 29.96 in Calm   1.2 mph 83 % 0.00 in
00:05 73.3 °F 67.5 °F 29.96 in SW 0.9 mph 2.3 mph 82 % 0.00 in
00:10 73.3 °F 67.8 °F 29.96 in SW 0.2 mph 1.2 mph 83 % 0.00 in
00:15 73.3 °F 67.8 °F 29.96 in West 0.1 mph 1.2 mph 83 % 0.00 in
00:20 73.4 °F 67.9 °F 29.96 in Calm   1.2 mph 83 % 0.00 in
00:25 73.4 °F 67.9 °F 29.96 in WSW 0.1 mph 1.2 mph 83 % 0.00 in
00:30 73.4 °F 67.9 °F 29.96 in WSW 0.3 mph 2.3 mph 83 % 0.00 in
00:35 73.5 °F 68.0 °F 29.96 in WSW 0.9 mph 3.5 mph 83 % 0.00 in
00:40 73.5 °F 68.0 °F 29.96 in Calm     83 % 0.00 in
00:45 73.5 °F 68.0 °F 29.96 in SW 0.1 mph 2.3 mph 83 % 0.00 in
00:50 73.5 °F 68.0 °F 29.96 in SW 1.8 mph 3.5 mph 83 % 0.00 in
00:55 73.5 °F 68.0 °F 29.96 in Calm     83 % 0.00 in
01:04 73.6 °F 68.1 °F 29.96 in Calm   1.2 mph 83 % 0.00 in
01:09 73.5 °F 68.0 °F 29.96 in Calm     83 % 0.00 in
01:15 73.5 °F 68.0 °F 29.96 in Calm     83 % 0.00 in
01:20 73.4 °F 67.9 °F 29.96 in Calm     83 % 0.00 in
01:25 73.3 °F 67.8 °F 29.96 in Calm     83 % 0.00 in
01:30 73.2 °F 67.7 °F 29.96 in Calm     83 % 0.00 in
01:35 73.2 °F 67.7 °F 29.96 in Calm     83 % 0.00 in
01:40 73.1 °F 67.6 °F 29.96 in Calm     83 % 0.00 in
01:45 73.0 °F 67.5 °F 29.96 in SW 0.7 mph 1.2 mph 83 % 0.00 in
01:50 72.9 °F 67.4 °F 29.96 in Calm     83 % 0.00 in
01:55 72.8 °F 67.3 °F 29.96 in Calm     83 % 0.00 in
02:00 72.7 °F 67.2 °F 29.96 in Calm     83 % 0.00 in
02:05 72.6 °F 67.5 °F 29.95 in Calm     84 % 0.00 in
02:10 72.5 °F 67.4 °F 29.96 in Calm     84 % 0.00 in
02:15 72.4 °F 67.6 °F 29.95 in Calm     85 % 0.00 in
02:20 72.2 °F 67.4 °F 29.95 in Calm     85 % 0.00 in
02:25 72.1 °F 67.3 °F 29.95 in Calm     85 % 0.00 in
02:30 72.0 °F 67.2 °F 29.95 in Calm     85 % 0.00 in
02:35 71.9 °F 67.5 °F 29.95 in Calm     86 % 0.00 in
02:40 71.8 °F 67.4 °F 29.95 in Calm     86 % 0.00 in
02:45 71.6 °F 67.2 °F 29.95 in Calm     86 % 0.00 in
02:50 71.5 °F 67.1 °F 29.95 in Calm     86 % 0.00 in
02:55 71.4 °F 67.0 °F 29.95 in Calm     86 % 0.00 in
03:00 71.3 °F 67.2 °F 29.96 in Calm     87 % 0.00 in
03:05 71.1 °F 67.0 °F 29.95 in Calm     87 % 0.00 in
03:10 71.0 °F 67.3 °F 29.95 in Calm     88 % 0.00 in
03:15 70.9 °F 66.8 °F 29.95 in Calm     87 % 0.00 in
03:20 70.8 °F 67.1 °F 29.96 in Calm     88 % 0.00 in
03:25 70.7 °F 67.0 °F 29.96 in Calm     88 % 0.00 in
03:30 70.5 °F 66.8 °F 29.96 in Calm     88 % 0.00 in
03:35 70.4 °F 66.7 °F 29.96 in Calm     88 % 0.00 in
03:41 70.3 °F 66.6 °F 29.96 in Calm     88 % 0.00 in
03:46 70.2 °F 66.9 °F 29.96 in Calm     89 % 0.00 in
03:51 70.2 °F 66.5 °F 29.96 in Calm     88 % 0.00 in
03:56 70.1 °F 66.7 °F 29.96 in Calm     89 % 0.00 in
04:01 70.0 °F 66.6 °F 29.96 in Calm     89 % 0.00 in
04:05 69.9 °F 66.5 °F 29.96 in Calm     89 % 0.00 in
04:10 69.8 °F 66.4 °F 29.95 in Calm     89 % 0.00 in
04:15 69.8 °F 66.7 °F 29.96 in Calm     90 % 0.00 in
04:20 69.7 °F 66.6 °F 29.95 in Calm     90 % 0.00 in
04:25 69.6 °F 66.5 °F 29.96 in Calm     90 % 0.00 in
04:30 69.6 °F 66.5 °F 29.96 in Calm     90 % 0.00 in
04:35 69.6 °F 66.9 °F 29.96 in Calm     91 % 0.00 in
04:40 69.5 °F 66.8 °F 29.96 in Calm     91 % 0.00 in
04:45 69.4 °F 66.7 °F 29.96 in Calm     91 % 0.00 in
04:50 69.4 °F 66.7 °F 29.95 in Calm     91 % 0.00 in
04:55 69.3 °F 66.6 °F 29.96 in Calm     91 % 0.00 in
05:01 69.2 °F 66.5 °F 29.96 in Calm     91 % 0.00 in
05:06 69.1 °F 66.4 °F 29.96 in Calm     91 % 0.00 in
05:11 69.0 °F 66.3 °F 29.96 in Calm   1.0 mph 91 % 0.00 in
05:16 69.0 °F 66.3 °F 29.96 in Calm     91 % 0.00 in
05:21 68.9 °F 66.2 °F 29.96 in Calm     91 % 0.00 in
05:26 68.8 °F 66.1 °F 29.97 in Calm     91 % 0.00 in
05:31 68.8 °F 66.1 °F 29.97 in Calm     91 % 0.00 in
05:36 68.8 °F 66.0 °F 29.97 in Calm     91 % 0.00 in
05:41 68.7 °F 66.0 °F 29.97 in Calm     91 % 0.00 in
05:46 68.6 °F 65.9 °F 29.97 in Calm     91 % 0.00 in
05:51 68.6 °F 65.9 °F 29.97 in Calm     91 % 0.00 in
05:56 68.6 °F 66.2 °F 29.98 in Calm   1.2 mph 92 % 0.00 in
06:01 68.6 °F 66.2 °F 29.98 in Calm     92 % 0.00 in
06:06 68.6 °F 66.2 °F 29.98 in Calm     92 % 0.00 in
06:11 68.6 °F 66.5 °F 29.98 in Calm     93 % 0.00 in
06:16 68.6 °F 66.5 °F 29.98 in Calm     93 % 0.00 in
06:21 68.6 °F 66.5 °F 29.98 in Calm     93 % 0.00 in
06:26 68.6 °F 66.5 °F 29.98 in Calm     93 % 0.00 in
06:31 68.6 °F 66.5 °F 29.98 in Calm     93 % 0.00 in
06:36 68.8 °F 66.7 °F 29.98 in Calm     93 % 0.00 in
06:41 68.8 °F 66.7 °F 29.98 in Calm     93 % 0.00 in
06:46 68.9 °F 67.1 °F 29.99 in Calm     94 % 0.00 in
06:51 69.0 °F 67.2 °F 29.99 in Calm     94 % 0.00 in
06:56 69.2 °F 67.4 °F 29.99 in Calm     94 % 0.00 in
07:01 69.4 °F 67.9 °F 29.99 in Calm     95 % 0.00 in
07:06 69.7 °F 68.2 °F 29.99 in Calm     95 % 0.00 in
07:11 69.9 °F 68.4 °F 29.99 in Calm     95 % 0.00 in
07:16 70.3 °F 69.1 °F 29.99 in Calm     96 % 0.00 in
07:21 70.7 °F 69.5 °F 29.99 in Calm     96 % 0.00 in
07:26 71.0 °F 69.8 °F 30.00 in Calm   1.2 mph 96 % 0.00 in
07:31 71.3 °F 70.1 °F 29.99 in WNW 2.3 mph 4.0 mph 96 % 0.00 in
07:36 71.5 °F 70.0 °F 30.00 in WNW 0.2 mph 1.2 mph 95 % 0.00 in
07:41 71.8 °F 70.3 °F 30.00 in Calm   1.2 mph 95 % 0.00 in
07:46 72.0 °F 70.5 °F 29.99 in SW 0.3 mph 1.2 mph 95 % 0.00 in
07:51 72.2 °F 70.7 °F 30.00 in SW 0.1 mph 1.0 mph 95 % 0.00 in
07:56 72.5 °F 70.7 °F 30.00 in SW 0.6 mph 2.3 mph 94 % 0.00 in
08:01 72.8 °F 70.7 °F 30.00 in Calm     93 % 0.00 in
08:07 73.1 °F 71.0 °F 30.00 in SW 0.3 mph 2.3 mph 93 % 0.00 in
08:12 73.3 °F 70.8 °F 30.00 in SW 1.4 mph 3.5 mph 92 % 0.00 in
08:17 73.6 °F 70.8 °F 30.00 in SW 3.7 mph 5.8 mph 91 % 0.00 in
08:22 73.8 °F 70.4 °F 30.00 in SW 0.1 mph 3.5 mph 89 % 0.00 in
08:32 74.2 °F 70.7 °F 30.00 in Calm     89 % 0.00 in
08:37 74.4 °F 70.6 °F 30.00 in WSW 1.1 mph 3.5 mph 88 % 0.00 in
08:42 74.6 °F 70.5 °F 30.00 in Calm     87 % 0.00 in
08:47 74.8 °F 70.7 °F 30.01 in Calm     87 % 0.00 in
08:52 75.0 °F 70.9 °F 30.01 in Calm   1.2 mph 87 % 0.00 in
08:57 75.2 °F 71.1 °F 30.01 in WSW 0.2 mph 2.3 mph 87 % 0.00 in
09:02 75.5 °F 71.4 °F 30.00 in Calm   1.2 mph 87 % 0.00 in
09:07 75.8 °F 71.7 °F 30.01 in NW 0.4 mph 3.5 mph 87 % 0.00 in
09:12 75.9 °F 71.4 °F 30.01 in NNW 0.7 mph 2.3 mph 86 % 0.00 in
09:17 76.1 °F 71.6 °F 30.01 in NNW 0.3 mph 2.0 mph 86 % 0.00 in
09:22 76.2 °F 71.7 °F 30.01 in NNW 0.5 mph 3.0 mph 86 % 0.00 in
09:27 76.2 °F 71.7 °F 30.01 in Calm   2.3 mph 86 % 0.00 in
09:32 76.2 °F 71.7 °F 30.01 in NNW 0.8 mph 2.3 mph 86 % 0.00 in
09:37 76.3 °F 71.5 °F 30.01 in NNW 0.1 mph 1.0 mph 85 % 0.00 in
09:42 76.5 °F 72.0 °F 30.01 in Calm   1.2 mph 86 % 0.00 in
09:47 76.7 °F 72.2 °F 30.01 in North 0.3 mph 2.0 mph 86 % 0.00 in
09:52 76.9 °F 72.0 °F 30.01 in NNE 0.9 mph 2.3 mph 85 % 0.00 in
09:57 77.3 °F 72.4 °F 30.01 in NNE 0.8 mph 2.3 mph 85 % 0.00 in
10:02 77.8 °F 72.6 °F 30.01 in NNE 1.2 mph 3.5 mph 84 % 0.00 in
10:07 78.4 °F 72.8 °F 30.01 in Calm   2.3 mph 83 % 0.00 in
10:12 79.1 °F 73.5 °F 30.01 in North 0.2 mph 1.2 mph 83 % 0.00 in
10:17 80.0 °F 73.3 °F 30.02 in NNE 0.9 mph 2.3 mph 80 % 0.00 in
10:23 80.9 °F 73.8 °F 30.01 in NE 0.3 mph 2.3 mph 79 % 0.00 in
10:28 81.8 °F 73.5 °F 30.01 in NE 0.3 mph 1.2 mph 76 % 0.00 in
10:33 82.6 °F 73.1 °F 30.01 in NE 1.0 mph 2.3 mph 73 % 0.00 in
10:38 83.4 °F 73.8 °F 30.01 in NNE 1.6 mph 2.3 mph 73 % 0.00 in
10:43 84.0 °F 74.0 °F 30.01 in ENE 1.3 mph 3.5 mph 72 % 0.00 in
10:48 84.7 °F 75.1 °F 30.01 in NE 0.3 mph 3.5 mph 73 % 0.00 in
10:53 85.3 °F 74.8 °F 30.01 in North 1.3 mph 3.5 mph 71 % 0.00 in
10:58 85.7 °F 74.4 °F 30.01 in NNE 1.8 mph 3.5 mph 69 % 0.00 in
11:03 86.0 °F 74.2 °F 30.01 in NNE 1.8 mph 3.5 mph 68 % 0.00 in
11:08 85.9 °F 74.1 °F 30.01 in NNE 2.1 mph 3.5 mph 68 % 0.00 in
11:13 85.8 °F 73.1 °F 30.01 in ENE 1.6 mph 4.0 mph 66 % 0.00 in
11:18 85.1 °F 72.9 °F 30.01 in NNE 0.5 mph 3.5 mph 67 % 0.00 in
11:23 84.6 °F 73.3 °F 30.01 in NNE 0.4 mph 3.5 mph 69 % 0.00 in
11:28 84.2 °F 73.8 °F 30.01 in Calm     71 % 0.00 in
11:33 83.7 °F 72.4 °F 30.01 in NE 0.5 mph 1.2 mph 69 % 0.00 in
11:38 83.0 °F 73.0 °F 30.01 in Calm   2.3 mph 72 % 0.00 in
11:43 82.5 °F 72.6 °F 30.01 in NE 0.2 mph 2.3 mph 72 % 0.00 in
11:48 82.1 °F 72.6 °F 30.01 in Calm     73 % 0.00 in
11:53 81.7 °F 73.0 °F 30.01 in Calm     75 % 0.00 in
11:59 81.7 °F 73.8 °F 30.01 in NE 0.9 mph 2.3 mph 77 % 0.00 in
12:04 81.5 °F 72.8 °F 30.01 in NE 0.1 mph 3.5 mph 75 % 0.00 in
12:09 81.3 °F 73.0 °F 30.01 in Calm   1.2 mph 76 % 0.00 in
12:14 81.3 °F 73.8 °F 30.02 in NE 0.3 mph 2.3 mph 78 % 0.00 in
12:19 81.3 °F 73.8 °F 30.02 in NE 1.1 mph 3.5 mph 78 % 0.00 in
12:24 81.6 °F 74.5 °F 30.01 in Calm   1.2 mph 79 % 0.00 in
12:29 82.2 °F 74.7 °F 30.01 in ENE 0.1 mph 3.5 mph 78 % 0.00 in
12:34 82.5 °F 74.2 °F 30.01 in NE 1.3 mph 3.5 mph 76 % 0.00 in
12:39 82.5 °F 73.4 °F 30.01 in NNE 1.1 mph 2.3 mph 74 % 0.00 in
12:44 82.4 °F 73.7 °F 30.01 in NNE 0.1 mph 2.3 mph 75 % 0.00 in
12:49 82.5 °F 73.8 °F 30.01 in ENE 1.2 mph 2.3 mph 75 % 0.00 in
12:54 82.5 °F 74.6 °F 30.00 in NE 0.1 mph 1.2 mph 77 % 0.00 in
12:56 82.5 °F 74.6 °F 30.01 in Calm   1.0 mph 77 % 0.00 in
13:01 83.1 °F 75.1 °F 30.01 in NE 0.5 mph 1.2 mph 77 % 0.00 in
13:06 83.5 °F 75.1 °F 30.00 in ESE 1.0 mph 4.0 mph 76 % 0.00 in
13:11 83.5 °F 72.7 °F 30.00 in SE 0.8 mph 3.5 mph 70 % 0.00 in
13:16 83.6 °F 71.5 °F 30.00 in SE 2.0 mph 5.0 mph 67 % 0.00 in
13:21 83.6 °F 71.0 °F 30.00 in Calm   5.0 mph 66 % 0.00 in
13:26 83.5 °F 71.4 °F 30.00 in SE 1.0 mph 8.0 mph 67 % 0.00 in
13:31 83.6 °F 72.3 °F 30.00 in SSE 2.0 mph 8.0 mph 69 % 0.00 in
13:36 83.8 °F 73.8 °F 30.00 in Calm   4.0 mph 72 % 0.00 in
13:41 84.1 °F 72.8 °F 30.00 in SSW 1.0 mph 5.0 mph 69 % 0.00 in
13:46 84.1 °F 72.0 °F 30.00 in SSE 1.0 mph 8.0 mph 67 % 0.00 in
13:51 83.9 °F 71.3 °F 29.99 in SE 1.0 mph 10.0 mph 66 % 0.00 in
13:56 83.9 °F 71.8 °F 30.00 in SE 5.0 mph 10.0 mph 67 % 0.00 in
14:01 83.8 °F 71.7 °F 29.99 in SE 1.0 mph 4.6 mph 67 % 0.00 in
14:06 83.6 °F 71.5 °F 29.99 in South 3.0 mph 6.9 mph 67 % 0.00 in
14:11 83.3 °F 71.6 °F 29.99 in SSE 2.2 mph 5.0 mph 68 % 0.00 in
14:16 82.9 °F 71.7 °F 29.99 in SE 1.3 mph 3.5 mph 69 % 0.00 in
14:21 82.7 °F 71.5 °F 29.99 in SSE 0.9 mph 5.8 mph 69 % 0.00 in
14:26 82.8 °F 72.4 °F 29.99 in South 1.7 mph 4.0 mph 71 % 0.00 in
14:31 83.0 °F 73.4 °F 29.99 in South 0.3 mph 2.3 mph 73 % 0.00 in
14:36 83.5 °F 74.7 °F 29.99 in SSW 2.4 mph 5.0 mph 75 % 0.00 in
14:41 83.9 °F 73.1 °F 29.99 in South 0.6 mph 3.5 mph 70 % 0.00 in
14:42 84.0 °F 73.2 °F 29.99 in South 1.0 mph 3.5 mph 70 % 0.00 in
14:47 84.0 °F 72.3 °F 29.99 in SSW 2.2 mph 6.9 mph 68 % 0.00 in
14:52 84.1 °F 72.8 °F 29.99 in SE 2.0 mph 3.5 mph 69 % 0.00 in
14:57 84.3 °F 73.9 °F 29.99 in SE 1.8 mph 3.5 mph 71 % 0.00 in
15:03 84.4 °F 74.0 °F 29.99 in SSE 1.3 mph 3.0 mph 71 % 0.00 in
15:08 84.4 °F 73.1 °F 29.99 in South 1.1 mph 5.8 mph 69 % 0.00 in
15:13 84.5 °F 73.2 °F 29.99 in SSE 4.1 mph 8.1 mph 69 % 0.00 in
15:18 84.3 °F 73.0 °F 29.99 in SE 4.8 mph 9.2 mph 69 % 0.00 in
15:23 83.6 °F 72.3 °F 29.99 in SE 2.7 mph 10.4 mph 69 % 0.00 in
15:28 83.3 °F 72.1 °F 29.99 in SSE 3.8 mph 8.1 mph 69 % 0.00 in
15:33 83.2 °F 72.0 °F 29.99 in SSE 2.3 mph 5.8 mph 69 % 0.00 in
15:38 83.2 °F 72.4 °F 29.99 in SE 2.8 mph 5.8 mph 70 % 0.00 in
15:43 83.2 °F 72.0 °F 29.99 in ESE 5.7 mph 8.1 mph 69 % 0.00 in
15:48 83.2 °F 72.0 °F 29.99 in SE 0.3 mph 3.5 mph 69 % 0.00 in
15:53 83.3 °F 71.6 °F 29.99 in SE 1.5 mph 7.0 mph 68 % 0.00 in
15:58 83.5 °F 72.3 °F 29.99 in SW 2.6 mph 5.0 mph 69 % 0.00 in
16:03 84.0 °F 73.6 °F 29.99 in South 0.2 mph 2.3 mph 71 % 0.00 in
16:08 84.4 °F 72.2 °F 29.99 in SSW 4.1 mph 6.9 mph 67 % 0.00 in
16:13 84.8 °F 73.1 °F 29.99 in South 0.3 mph 2.0 mph 68 % 0.00 in
16:18 85.1 °F 72.0 °F 29.99 in SSE 3.4 mph 6.9 mph 65 % 0.00 in
16:23 85.2 °F 71.2 °F 29.99 in SE 2.6 mph 5.0 mph 63 % 0.00 in
16:28 85.0 °F 71.0 °F 29.99 in SE 0.4 mph 9.2 mph 63 % 0.00 in
16:33 84.9 °F 71.4 °F 29.99 in SSE 0.9 mph 6.9 mph 64 % 0.00 in
16:38 84.8 °F 71.7 °F 29.99 in SSW 1.4 mph 4.0 mph 65 % 0.00 in
16:43 84.8 °F 71.3 °F 29.99 in SW 0.6 mph 2.3 mph 64 % 0.00 in
16:48 84.8 °F 71.3 °F 30.00 in SSE 2.0 mph 3.5 mph 64 % 0.00 in
16:53 84.7 °F 70.7 °F 29.99 in SE 1.1 mph 4.0 mph 63 % 0.00 in
16:54 84.7 °F 70.7 °F 29.99 in SE 3.9 mph 10.4 mph 63 % 0.00 in
16:59 84.5 °F 71.0 °F 29.99 in SSW 2.4 mph 4.6 mph 64 % 0.00 in
17:04 84.5 °F 69.6 °F 29.99 in SW 3.1 mph 5.8 mph 61 % 0.00 in
17:09 84.5 °F 70.5 °F 29.99 in SSE 3.1 mph 6.9 mph 63 % 0.00 in
17:14 84.4 °F 70.4 °F 29.99 in SSE 4.8 mph 10.4 mph 63 % 0.00 in
17:19 84.2 °F 69.3 °F 29.99 in SE 2.2 mph 6.0 mph 61 % 0.00 in
17:24 83.8 °F 69.9 °F 29.99 in SE 1.0 mph 3.5 mph 63 % 0.00 in
17:29 83.6 °F 70.1 °F 29.99 in WSW 1.1 mph 3.5 mph 64 % 0.00 in
17:34 83.6 °F 70.1 °F 29.99 in SW 0.5 mph 2.3 mph 64 % 0.00 in
17:39 83.4 °F 70.4 °F 29.99 in South 0.6 mph 2.3 mph 65 % 0.00 in
17:44 83.3 °F 70.3 °F 30.00 in SSW 1.8 mph 4.6 mph 65 % 0.00 in
17:49 83.1 °F 70.6 °F 30.00 in SSE 0.4 mph 2.3 mph 66 % 0.00 in
17:54 82.9 °F 70.4 °F 30.00 in South 2.3 mph 6.9 mph 66 % 0.00 in
17:59 82.7 °F 70.6 °F 30.00 in SSE 0.9 mph 4.0 mph 67 % 0.00 in
18:04 82.6 °F 71.0 °F 30.00 in Calm   1.2 mph 68 % 0.00 in
18:09 82.4 °F 70.8 °F 30.00 in SE 0.2 mph 1.2 mph 68 % 0.00 in
18:14 82.3 °F 70.7 °F 30.00 in South 1.9 mph 3.5 mph 68 % 0.00 in
18:19 82.1 °F 70.9 °F 30.00 in SE 0.1 mph 1.2 mph 69 % 0.00 in
18:24 82.0 °F 71.2 °F 30.01 in SW 2.2 mph 5.0 mph 70 % 0.00 in
18:29 81.9 °F 71.6 °F 30.01 in SW 0.2 mph 1.2 mph 71 % 0.00 in
18:34 81.8 °F 71.1 °F 30.01 in SSE 2.4 mph 6.0 mph 70 % 0.00 in
18:39 81.4 °F 71.1 °F 30.01 in SE 2.3 mph 7.0 mph 71 % 0.00 in
18:44 81.1 °F 71.2 °F 30.01 in SSE 1.1 mph 4.6 mph 72 % 0.00 in
18:49 80.9 °F 71.4 °F 30.01 in SE 5.6 mph 10.4 mph 73 % 0.00 in
18:54 80.5 °F 71.0 °F 30.01 in SE 3.6 mph 7.0 mph 73 % 0.00 in
18:59 80.3 °F 71.3 °F 30.01 in SE 1.3 mph 2.3 mph 74 % 0.00 in
19:04 80.0 °F 71.0 °F 30.01 in SE 2.6 mph 4.6 mph 74 % 0.00 in
19:09 79.8 °F 71.2 °F 30.01 in Calm   2.3 mph 75 % 0.00 in
19:14 79.7 °F 71.1 °F 30.01 in SE 4.7 mph 8.1 mph 75 % 0.00 in
19:19 79.5 °F 71.7 °F 30.01 in SE 2.0 mph 4.6 mph 77 % 0.00 in
19:24 79.4 °F 71.6 °F 30.01 in SE 0.1 mph 3.5 mph 77 % 0.00 in
19:29 79.3 °F 71.8 °F 30.02 in Calm     78 % 0.00 in
19:34 79.2 °F 71.7 °F 30.02 in SSE 1.2 mph 3.0 mph 78 % 0.00 in
19:39 79.1 °F 72.0 °F 30.02 in SSE 0.3 mph 1.2 mph 79 % 0.00 in
19:44 79.0 °F 71.9 °F 30.03 in SW 0.3 mph 1.0 mph 79 % 0.00 in
19:49 78.9 °F 71.8 °F 30.03 in Calm   2.3 mph 79 % 0.00 in
19:54 78.8 °F 72.1 °F 30.02 in SW 0.1 mph 2.0 mph 80 % 0.00 in
19:59 78.7 °F 72.0 °F 30.03 in Calm   1.2 mph 80 % 0.00 in
20:05 78.6 °F 71.9 °F 30.03 in Calm   1.2 mph 80 % 0.00 in
20:10 78.5 °F 72.2 °F 30.02 in SW 0.8 mph 2.3 mph 81 % 0.00 in
20:15 78.3 °F 72.0 °F 30.03 in Calm     81 % 0.00 in
20:20 78.2 °F 71.9 °F 30.02 in SW 0.2 mph 1.2 mph 81 % 0.00 in
20:25 78.1 °F 71.8 °F 30.03 in Calm     81 % 0.00 in
20:30 77.9 °F 71.6 °F 30.03 in Calm     81 % 0.00 in
20:35 77.8 °F 71.5 °F 30.03 in Calm   1.2 mph 81 % 0.00 in
20:40 77.6 °F 71.7 °F 30.02 in Calm     82 % 0.00 in
20:45 77.5 °F 71.6 °F 30.02 in Calm     82 % 0.00 in
20:50 77.4 °F 71.5 °F 30.02 in Calm     82 % 0.00 in
20:55 77.2 °F 71.3 °F 30.02 in Calm     82 % 0.00 in
21:00 77.1 °F 71.5 °F 30.02 in Calm     83 % 0.00 in
21:05 76.9 °F 71.3 °F 30.02 in Calm     83 % 0.00 in
21:10 76.8 °F 71.6 °F 30.02 in Calm   1.2 mph 84 % 0.00 in
21:15 76.6 °F 71.7 °F 30.01 in SSE 0.3 mph 1.2 mph 85 % 0.00 in
21:20 76.5 °F 71.7 °F 30.01 in Calm     85 % 0.00 in
21:25 76.3 °F 71.5 °F 30.02 in Calm     85 % 0.00 in
21:30 76.2 °F 71.4 °F 30.03 in Calm     85 % 0.00 in
21:35 76.1 °F 71.3 °F 30.03 in Calm     85 % 0.00 in
21:40 76.0 °F 71.2 °F 30.02 in Calm     85 % 0.00 in
21:45 75.8 °F 71.3 °F 30.02 in Calm     86 % 0.00 in
21:50 75.8 °F 71.7 °F 30.02 in SSE 0.1 mph 1.2 mph 87 % 0.00 in
21:55 75.7 °F 71.9 °F 30.02 in SSE 0.9 mph 1.2 mph 88 % 0.00 in
22:00 75.5 °F 72.0 °F 30.02 in SSE 0.6 mph 2.0 mph 89 % 0.00 in
22:05 75.4 °F 71.9 °F 30.01 in SE 2.2 mph 3.5 mph 89 % 0.00 in
22:11 75.4 °F 71.9 °F 30.01 in SE 1.0 mph 5.0 mph 89 % 0.00 in
22:16 75.3 °F 72.2 °F 30.01 in SE 2.0 mph 5.0 mph 90 % 0.00 in
22:21 75.3 °F 72.2 °F 30.01 in SE 2.0 mph 6.0 mph 90 % 0.00 in
22:26 75.3 °F 72.5 °F 30.01 in SE 3.0 mph 8.0 mph 91 % 0.00 in
22:31 75.3 °F 72.5 °F 30.02 in Calm   4.0 mph 91 % 0.00 in
22:36 75.3 °F 72.5 °F 30.02 in Calm   6.0 mph 91 % 0.00 in
22:41 75.3 °F 72.5 °F 30.02 in Calm   3.0 mph 91 % 0.00 in
22:46 75.3 °F 72.5 °F 30.02 in Calm   2.0 mph 91 % 0.00 in
22:51 75.3 °F 72.5 °F 30.02 in Calm   2.0 mph 91 % 0.00 in
22:56 75.2 °F 72.8 °F 30.02 in Calm   3.0 mph 92 % 0.00 in
23:01 75.2 °F 72.7 °F 30.02 in Calm     92 % 0.00 in
23:06 75.2 °F 72.7 °F 30.03 in SE 0.5 mph 2.3 mph 92 % 0.00 in
23:11 75.2 °F 72.7 °F 30.03 in SE 0.2 mph 1.2 mph 92 % 0.00 in
23:16 75.1 °F 72.6 °F 30.03 in WNW 0.3 mph 2.3 mph 92 % 0.00 in
23:21 75.1 °F 72.6 °F 30.03 in WNW 0.2 mph 1.2 mph 92 % 0.00 in
23:26 75.1 °F 72.6 °F 30.04 in Calm     92 % 0.00 in
23:31 75.1 °F 72.6 °F 30.03 in SW 0.2 mph 4.6 mph 92 % 0.00 in
23:32 75.1 °F 72.6 °F 30.03 in Calm     92 % 0.00 in
23:37 75.0 °F 72.5 °F 30.03 in Calm     92 % 0.00 in
23:42 75.0 °F 72.5 °F 30.03 in Calm   1.0 mph 92 % 0.00 in
23:45 75.0 °F 72.5 °F 30.03 in Calm     92 % 0.00 in
23:50 74.9 °F 72.4 °F 30.03 in Calm     92 % 0.00 in
23:55 74.9 °F 72.4 °F 30.03 in Calm     92 % 0.00 in
Crab Meadow Weather
Compliments of Weather Underground - 3 mb

Script developed by  Jim McMurry - jmcmurry@mwt.net Adapted for the template by  Wim van der Kuil - Leuven-Template.eu

Lightning: The average number of deaths from lightning is more than 100 a year with several more deaths from lightning related fires. Lightning injuries account for 3-5 times than those of lightning deaths.